| time (UTC) | temp C | wind direction | speed KPH | gust KPH | rain 1hr cm | rain 24hr cm | rain mn cm | humidity % | barometer mb |
| 20260504214510 | 12 | 274 | 0.0 | 0.0 | 0.00 | 0.00 | 0.00 | 76 | 1007.8 |
| 20260504213026 | 12 | 274 | 0.0 | 1.6 | 0.00 | 0.00 | 0.00 | 76 | 1007.9 |
| 20260504211510 | 12 | 272 | 0.0 | 0.0 | 0.00 | 0.00 | 0.00 | 76 | 1007.8 |
| 20260504210007 | 13 | 272 | 0.0 | 0.0 | 0.00 | 0.00 | 0.00 | 75 | 1007.7 |
| 20260504204507 | 13 | 272 | 0.0 | 0.0 | 0.00 | 0.00 | 0.00 | 73 | 1007.7 |
| 20260504203003 | 13 | 272 | 0.0 | 1.6 | 0.00 | 0.00 | 0.00 | 73 | 1007.8 |
| 20260504201607 | 13 | 250 | 0.0 | 0.0 | 0.00 | 0.00 | 0.00 | 72 | 1007.7 |
| 20260504200058 | 13 | 250 | 0.0 | 0.0 | 0.00 | 0.00 | 0.00 | 70 | 1007.7 |
| 20260504194604 | 14 | 248 | 0.0 | 6.4 | 0.00 | 0.00 | 0.00 | 69 | 1007.8 |
| 20260504193057 | 14 | 270 | 0.0 | 0.0 | 0.00 | 0.00 | 0.00 | 67 | 1007.7 |
| 20260504191621 | 15 | 270 | 0.0 | 0.0 | 0.00 | 0.00 | 0.00 | 66 | 1007.7 |
| 20260504184605 | 15 | 270 | 0.0 | 3.2 | 0.00 | 0.00 | 0.00 | 63 | 1007.7 |
| 20260504183055 | 15 | 272 | 0.0 | 8.0 | 0.00 | 0.00 | 0.00 | 59 | 1007.8 |
| 20260504181554 | 16 | 305 | 0.0 | 6.4 | 0.00 | 0.00 | 0.00 | 57 | 1007.9 |
| 20260504180054 | 16 | 254 | 0.0 | 8.0 | 0.00 | 0.00 | 0.00 | 52 | 1007.9 |
| 20260504174553 | 16 | 285 | 0.0 | 0.0 | 0.00 | 0.00 | 0.00 | 51 | 1007.8 |
| 20260504173052 | 17 | 285 | 0.0 | 0.0 | 0.00 | 0.00 | 0.00 | 49 | 1007.6 |
| 20260504171552 | 17 | 285 | 0.0 | 6.4 | 0.00 | 0.00 | 0.00 | 49 | 1007.5 |
| 20260504081506 | 17 | 191 | 1.6 | 12.9 | 0.00 | 0.00 | 0.00 | 39 | 1009.0 |
| 20260504044535 | 13 | 308 | 0.0 | 6.4 | 0.00 | 0.00 | 0.00 | 47 | 1010.3 |
| 20260504043033 | 12 | 293 | 0.0 | 0.0 | 0.00 | 0.00 | 0.00 | 53 | 1010.4 |
| 20260504041526 | 11 | 283 | 0.0 | 3.2 | 0.00 | 0.00 | 0.00 | 52 | 1010.4 |
| 20260504040022 | 11 | 305 | 0.0 | 0.0 | 0.00 | 0.00 | 0.00 | 55 | 1010.4 |
| 20260504034520 | 10 | 191 | 0.0 | 0.0 | 0.00 | 0.00 | 0.00 | 57 | 1010.4 |
| 20260504033016 | 9 | 190 | 0.0 | 0.0 | 0.00 | 0.00 | 0.00 | 57 | 1010.5 |
| 20260504031514 | 8 | 164 | 0.0 | 0.0 | 0.00 | 0.00 | 0.00 | 58 | 1010.5 |
| 20260504030011 | 7 | 162 | 0.0 | 0.0 | 0.00 | 0.00 | 0.00 | 66 | 1010.6 |
| 20260504024512 | 7 | 162 | 0.0 | 0.0 | 0.00 | 0.00 | 0.00 | 70 | 1010.6 |
| 20260504023009 | 7 | 162 | 0.0 | 0.0 | 0.00 | 0.00 | 0.00 | 72 | 1010.6 |
| 20260504021508 | 5 | 163 | 0.0 | 0.0 | 0.00 | 0.00 | 0.00 | 76 | 1010.7 |
| 20260504020006 | 5 | 162 | 0.0 | 0.0 | 0.00 | 0.00 | 0.00 | 77 | 1010.8 |
| 20260504014506 | 3 | 162 | 0.0 | 0.0 | 0.00 | 0.00 | 0.00 | 77 | 1010.9 |
| 20260504013004 | 3 | 162 | 0.0 | 0.0 | 0.00 | 0.00 | 0.00 | 79 | 1010.9 |
| 20260504011503 | 2 | 162 | 0.0 | 0.0 | 0.00 | 0.00 | 0.00 | 78 | 1011.0 |
| 20260504010101 | 2 | 162 | 0.0 | 0.0 | 0.00 | 0.00 | 0.00 | 76 | 1011.0 |
| 20260504004557 | 3 | 162 | 0.0 | 0.0 | 0.00 | 0.00 | 0.00 | 73 | 1011.0 |
| 20260504003056 | 3 | 162 | 0.0 | 0.0 | 0.00 | 0.00 | 0.00 | 72 | 1011.0 |
| 20260504001555 | 3 | 162 | 0.0 | 0.0 | 0.00 | 0.00 | 0.00 | 71 | 1011.2 |
| 20260504000127 | 3 | 162 | 0.0 | 0.0 | 0.00 | 0.00 | 0.00 | 69 | 1011.3 |
| 20260503234548 | 4 | 162 | 0.0 | 0.0 | 0.00 | 0.00 | 0.00 | 67 | 1011.4 |
| 20260503233044 | 5 | 162 | 0.0 | 0.0 | 0.00 | 0.00 | 0.00 | 64 | 1011.4 |
| 20260503231542 | 5 | 162 | 0.0 | 0.0 | 0.00 | 0.00 | 0.00 | 62 | 1011.5 |
| 20260503230041 | 5 | 162 | 0.0 | 0.0 | 0.00 | 0.00 | 0.00 | 61 | 1011.6 |
| 20260503224537 | 6 | 162 | 0.0 | 0.0 | 0.00 | 0.00 | 0.00 | 59 | 1011.7 |
| 20260503223034 | 6 | 162 | 0.0 | 0.0 | 0.00 | 0.00 | 0.00 | 58 | 1011.8 |
| 20260503221530 | 7 | 162 | 0.0 | 0.0 | 0.00 | 0.00 | 0.00 | 56 | 1011.9 |
| 20260503220029 | 7 | 162 | 0.0 | 0.0 | 0.00 | 0.00 | 0.00 | 55 | 1011.9 |